Regional Weather Roundup
Issued by NWS Portland, ME

Home | Current Version | Previous Version | Text Only | Print | Product List | Glossary On
Versions: 1 2 3 4 5 6 7 8 9 10 11 12 13 14 15 16 17 18 19 20 21 22 23 24 25 26 27 28 29 30 31 32 33 34 35 36 37 38 39 40 41 42 43 44 45 46 47 48 49 50
000
ASUS41 KGYX 241210
RWRGYX
WEATHER ROUNDUP FOR MAINE AND NEW HAMPSHIRE
NATIONAL WEATHER SERVICE GRAY ME
700 AM EST WED JAN 24 2018

MEZ002-005-006-010-012-015-018-020-021-024-026-027-029-241300-
MAINE

CITY           SKY/WX    TMP DP  RH WIND       PRES   REMARKS
PORTLAND       FAIR      34  31  88 VRB5      29.60R
6HR MIN TEMP:  32; 6HR MAX TEMP:  38;

SANFORD        FAIR      34  30  85 W7        29.62R
BAR HARBOR     FAIR      34  31  88 SW9       29.53R
WISCASSET      MOCLDY    33  32  96 VRB3      29.58R
6HR MIN TEMP:  31; 6HR MAX TEMP:  35;

ROCKLAND       FAIR      35  32  88 W7        29.55R
FRYEBURG       MOCLDY    36  29  75 MISG      29.57R
6HR MIN TEMP:  33; 6HR MAX TEMP:  37;

LEWISTONAUBURN CLOUDY    31  31 100 SE5       29.57R
AUGUSTA        FAIR      32  30  92 SW8       29.54R
6HR MIN TEMP:  31; 6HR MAX TEMP:  36;

BANGOR         FAIR      35  30  82 SW3       29.49R
6HR MIN TEMP:  30; 6HR MAX TEMP:  37;

GREENVILLE     NOT AVBL
MILLINOCKET    CLOUDY    34  33  96 VRB3      29.43R
6HR MIN TEMP:  34; 6HR MAX TEMP:  38; 6HR PCP: TRACE;

HOULTON        MIX PCPN  34  34 100 S7        29.37R
6HR MIN TEMP:  33; 6HR MAX TEMP:  36; 6HR PCP:  0.07;

PRESQUE ISLE   FLURRIES  27  25  92 W6        29.39R
6HR MIN TEMP:  26; 6HR MAX TEMP:  27; 6HR PCP:  0.16;

FRENCHVILLE    LGT SNOW  19  16  88 W10       29.34R FOG     WCI   7
6HR MIN TEMP:  18; 6HR MAX TEMP:  21; 6HR PCP:  0.12;

CARIBOU        FLURRIES  25  21  85 VRB6      29.37R
6HR MIN TEMP:  25; 6HR MAX TEMP:  26; 6HR PCP:  0.31;

$$

NHZ002-005-008-009-011-012-014-241300-
NEW HAMPSHIRE

CITY           SKY/WX    TMP DP  RH WIND       PRES   REMARKS
PORTSMOUTH     MOCLDY    35  30  82 SW7       29.63R
ROCHESTER      MOCLDY    35  32  88 W6        29.62R
6HR MIN TEMP:  29; 6HR MAX TEMP:  35;

NASHUA         MOCLDY    36  28  73 W7        29.69R
MANCHESTER     MOCLDY    36  28  73 W8        29.66R
6HR MIN TEMP:  28; 6HR MAX TEMP:  38;

CONCORD        FAIR      35  28  75 W13G25    29.64R
6HR MIN TEMP:  27; 6HR MAX TEMP:  37;

LACONIA        CLOUDY    33  28  81 W8        29.63R
PLYMOUTH       CLOUDY    35  25  67 W9G25     29.64R
BERLIN         FLURRIES  30  24  78 W9G22     29.55R
6HR MIN TEMP:  30; 6HR MAX TEMP:  38; 6HR PCP:  0.01;

WHITEFIELD     FLURRIES  31  25  78 NW15G21   29.61R
6HR MIN TEMP:  31; 6HR MAX TEMP:  36; 6HR PCP:  0.01;

JAFFREY        CLOUDY    34  26  72 W13G22    29.67R
6HR MIN TEMP:  34; 6HR MAX TEMP:  38;

KEENE          CLOUDY    34  24  67 W14       29.71R
LEBANON        CLOUDY    34  20  56 W15G29    29.69R
6HR MIN TEMP:  34; 6HR MAX TEMP:  40; 6HR PCP: TRACE;

MT WASHINGTON  BLWGSNOW  10  10 100 W68G82      N/A  VSB 1/16WCI -19
6HR MIN TEMP:  10; 6HR MAX TEMP:  17; 6HR PCP:  0.07;

$$

VTZ005-007-008-241300-
VERMONT

CITY           SKY/WX    TMP DP  RH WIND       PRES   REMARKS
ST JOHNSBURY     N/A     28  21  75 MISG      29.67R
MONTPELIER     FLURRIES  25  21  85 N17G30    29.72R WCI  12
BURLINGTON     MOCLDY    24  13  62 NW20G29   29.82R WCI  10
$$

MAZ007-012-024-CTZ003-RIZ002-NYZ038-NYZ072-241300-
SOUTHERN NEW ENGLAND AND NY

CITY           SKY/WX    TMP DP  RH WIND       PRES   REMARKS
BOSTON         FAIR      38  31  76 SW15      29.69R
WORCESTER      FAIR      34  24  67 W26G38    29.67R
NANTUCKET      FAIR      38  35  89 W15       29.75R
PROVIDENCE     FAIR      37  31  78 SW9       29.74R
HARTFORD       MOCLDY    36  27  69 NW20G33   29.78R
ALBANY         CLOUDY    30  19  63 W23G35    29.87R WCI  17
NEW YORK CITY  CLOUDY    44  26  49 NW16      29.84R
$$

ANZ081-ANZ082-ANZ150-NHZ014-MEZ023>029-241300-
COASTAL MARINE OBSERVATIONS

STATION/POSITION TIME  TEMP    WIND        PRES    WAVE
                       AIR SEA DIR/SP/G            HT/PER
                 (UTC) (F)     (DEG/KT/KT) (MB)    (FT/S)
MOUNT DESERT ROC 1200   42     240/ 26/ 29 1000.2R
MATINICUS ROCK   1100   41     250/ 26/ 29  999.4R
ISLE OF SHOALS   1100   38     220/ 21/ 22 1002.3R
JEFFREYS LEDGE   1136      43                N/A     6/ 8
GEORGES BANK BUO 1050   60 60              1001.7   13/ 8
$$

.............KEY..............
   WCI - WIND CHILL
   TC  - TEMPERATURE IN CELSIUS
   VSB - VISIBILITY IN MILES
   HX  - HEAT INDEX
   FAIR- INDICATES FEW OR NO CLOUDS BELOW 12,000 FT, WITH NO
         SIGNIFICANT WEATHER AND/OR OBSTRUCTIONS TO VISIBILITY.






USA.gov is the U.S. government's official web portal to all federal, state and local government web resources and services.